Starlink 30564

operational
NORAD ID: 58043 Int'l Des: 2023-156 Owner: SPXS Country: US Constellation: starlink
LEOCIRCULAR

About Starlink 30564

Description loading...

Live Position

Loading 3D Globe...

Upcoming Passes

Altitude History

Altitude vs Time

uPlot chart will show altitude changes over time

Two-Line Element Set

1 58043U 23156R 25305.29199517 -.00044389 00000-0 -14971-2 0 9999
2 58043 53.1603 314.8836 0001617 108.0612 252.0565 15.30164380116651
Epoch: Nov 1, 2025 • Age: 28 hours

Current Status

Altitude 488.3 km
Velocity 7.62 km/s
Sub-Earth Point -37.61°S, 37.24°W
Launch Date Oct 9, 2023
Age 2 years
Type internet

Technical Details

Classification Payload
Mass 730.00 kg
Dry Mass 700.00 kg
Total Mass 730.00 kg
Length 0.30 m
Diameter 4.10 m
Span 29.00 m
Shape Box + pan
Manufacturer SPXS
Bus Type Starlink V2M
Phase Status In Orbit
Owner/State SPXS/US

Large Constellations

Loading constellations...